Miami, FL

6:37 AM EDT on August 14, 2018 (GMT -0400)
Miami International

Weather History for KMIA - May, 2018

Change the Weather History Date:

Wednesday, May 16, 2018

  Actual Average Record
Temperature  
Mean Temperature 79 °F 80 °F  
Max Temperature 86 °F 87 °F 95 °F (1995)
Min Temperature 72 °F 73 °F 56 °F (1917)
Degree Days  
Heating Degree Days 0 0  
Month to date heating degree days 0 0  
Since 1 July heating degree days 85 128  
Cooling Degree Days 14 15  
Month to date cooling degree days 219 223  
Year to date cooling degree days 1263 1116  
Growing Degree Days 28 (Base 50)    
Moisture  
Dew Point 74 °F    
Average Humidity 85    
Maximum Humidity 100    
Minimum Humidity 70    
Precipitation  
Precipitation 0.00 in 0.16 in 3.14 in (1920)
Month to date precipitation 4.52 2.07  
Year to date precipitation 9.89 12.08  
Snow  
Snow 0.00 in - - ()
Month to date snowfall 0.0  
Since 1 July snowfall 0.0  
Snow Depth 0.00 in    
Sea Level Pressure  
Sea Level Pressure 29.97 in    
Wind  
Wind Speed 8 mph (ESE)    
Max Wind Speed 22 mph    
Max Gust Speed 29 mph    
Visibility 10 miles    
Events Rain , Thunderstorm    
T = Trace of Precipitation, MM = Missing Value Source: NWS Daily Summary

Daily Weather History Graph

Daily Weather History Graph

Search for Another Location

Airport or City:

Astronomy

May. 16, 2018 Rise Set
Actual Time 6:34 AM EDT 8:00 PM EDT
Civil Twilight 6:09 AM EDT 8:25 PM EDT
Nautical Twilight 5:40 AM EDT 8:55 PM EDT
Astronomical Twilight 5:09 AM EDT 9:26 PM EDT
Moon 7:42 AM EDT (5/16) 9:27 PM EDT (5/16)
Length of Visible Light 14h 15m
Length of Day
13h 25m
New Moon, 2% of the Moon is Illuminated
May 16
New Moon
May 21
First Quarter
May 29
Full
Jun 6
Last Quarter
Jun 13
New

Hourly Weather History & Observations

Time (EDT) Temp. Heat Index Dew Point Humidity Pressure Visibility Wind Dir Wind Speed Gust Speed Precip Events Conditions
12:53 AM 72.0 °F - 72.0 °F 100% 29.99 in 10.0 mi East 9.2 mph - N/A   Mostly Cloudy
1:53 AM 73.0 °F - 73.0 °F 100% 29.97 in 10.0 mi East 5.8 mph - N/A   Mostly Cloudy
2:53 AM 73.0 °F - 73.0 °F 100% 29.96 in 10.0 mi East 5.8 mph - N/A   Scattered Clouds
3:53 AM 73.0 °F - 71.1 °F 93% 29.94 in 10.0 mi East 5.8 mph - N/A   Partly Cloudy
4:53 AM 72.0 °F - 72.0 °F 100% 29.93 in 10.0 mi Calm Calm - N/A   Partly Cloudy
5:53 AM 73.9 °F - 72.0 °F 93% 29.94 in 10.0 mi East 4.6 mph - N/A   Partly Cloudy
6:53 AM 73.9 °F - 73.0 °F 97% 29.95 in 10.0 mi ESE 5.8 mph - N/A   Partly Cloudy
7:53 AM 77.0 °F - 75.9 °F 96% 29.96 in 10.0 mi ESE 6.9 mph - N/A   Scattered Clouds
8:53 AM 80.1 °F 85.8 °F 77.0 °F 90% 29.99 in 10.0 mi SE 11.5 mph - N/A   Scattered Clouds
9:53 AM 82.0 °F 88.6 °F 75.0 °F 79% 29.99 in 10.0 mi SSE 6.9 mph - N/A   Mostly Cloudy
10:20 AM 82.9 °F 90.2 °F 75.0 °F 77% 29.99 in 10.0 mi SE 11.5 mph - N/A   Mostly Cloudy
10:53 AM 82.9 °F 89.4 °F 73.9 °F 74% 29.99 in 10.0 mi South 6.9 mph - N/A   Mostly Cloudy
11:26 AM 84.0 °F 91.9 °F 75.0 °F 74% 29.99 in 10.0 mi SE 13.8 mph - N/A   Mostly Cloudy
11:53 AM 84.9 °F 92.1 °F 73.9 °F 69% 29.99 in 10.0 mi SE 11.5 mph 18.4 mph N/A   Mostly Cloudy
12:53 PM 84.0 °F 91.9 °F 75.0 °F 74% 29.99 in 10.0 mi SSE 11.5 mph 20.7 mph N/A   Mostly Cloudy
1:53 PM 84.9 °F 93.3 °F 75.0 °F 72% 29.97 in 10.0 mi SE 17.3 mph 23.0 mph N/A   Mostly Cloudy
2:50 PM 82.4 °F 89.5 °F 75.2 °F 79% 29.96 in 10.0 mi ESE 18.4 mph - N/A   Mostly Cloudy
2:53 PM 82.9 °F 90.2 °F 75.0 °F 77% 29.95 in 10.0 mi ESE 20.7 mph - N/A   Mostly Cloudy
3:41 PM 81.0 °F 86.2 °F 73.9 °F 79% 29.95 in 10.0 mi SE 16.1 mph - N/A Thunderstorm Thunderstorm
3:53 PM 81.0 °F 86.2 °F 73.9 °F 79% 29.96 in 10.0 mi ESE 18.4 mph 25.3 mph N/A Thunderstorm Thunderstorm
4:22 PM 80.1 °F 84.5 °F 73.9 °F 81% 29.96 in 10.0 mi SE 11.5 mph - N/A Thunderstorm Thunderstorm
4:53 PM 81.0 °F 85.8 °F 73.0 °F 77% 29.97 in 10.0 mi SE 8.1 mph - N/A Thunderstorm Thunderstorm
5:53 PM 75.9 °F - 69.1 °F 79% 29.96 in 10.0 mi West 3.5 mph - N/A Thunderstorm Thunderstorm
6:31 PM 75.0 °F - 71.1 °F 87% 29.97 in 10.0 mi WNW 8.1 mph - N/A Thunderstorm Thunderstorm
6:53 PM 75.0 °F - 71.1 °F 87% 29.97 in 10.0 mi NW 4.6 mph - N/A Thunderstorm Thunderstorm
7:17 PM 75.0 °F - 72.0 °F 90% 29.97 in 10.0 mi East 5.8 mph - N/A   Overcast
7:53 PM 75.9 °F - 72.0 °F 87% 29.96 in 10.0 mi NE 3.5 mph - N/A   Overcast
8:51 PM 77.0 °F - 73.4 °F 89% 29.97 in 10.0 mi Calm Calm - N/A   Overcast
8:53 PM 77.0 °F - 73.0 °F 88% 29.98 in 10.0 mi Calm Calm - N/A   Overcast
9:45 PM 78.1 °F - 75.9 °F 93% 29.99 in 10.0 mi ESE 8.1 mph - N/A   Mostly Cloudy
9:53 PM 79.0 °F - 75.9 °F 90% 29.99 in 10.0 mi SE 6.9 mph - N/A   Mostly Cloudy
10:53 PM 79.0 °F - 75.9 °F 90% 30.00 in 10.0 mi SE 6.9 mph - N/A   Overcast
11:53 PM 78.1 °F - 75.9 °F 93% 29.99 in 10.0 mi SE 5.8 mph - N/A   Overcast